Regional Weather Roundup
Issued by NWS Grand Forks, ND

Home | Current Version | Previous Version | Graphics & Text | Print | Product List | Glossary On
Versions: 1 2 3 4 5 6 7 8 9 10 11 12 13 14 15 16 17 18 19 20 21 22 23 24 25 26 27 28 29 30 31 32 33 34 35 36 37 38 39 40 41 42 43 44 45 46 47 48 49 50
000
ASUS43 KFGF 231010
RWRFGF
PRAIRIE TO PINES  WEATHER ROUNDUP
NATIONAL WEATHER SERVICE EASTERN NORTH DAKOTA/GRAND FORKS ND
400 AM CST THU NOV 23 2017

 **SATELLITE DATA USED TO AUGMENT SKY COVER AT AUTOMATED STATIONS**
 *****  WEATHER ACROSS EASTERN NORTH DAKOTA  *****

CITY           SKY/WX    TMP DP  RH WIND       PRES   REMARKS
GRAND FORKS    CLOUDY    25  24  96 SW5       29.92F WCI  19
GRAND FRKS AFB CLOUDY    26  24  92 S5        29.91F WCI  21
GRAND FRKS NWS   N/A     25 N/A N/A MISG        N/A
DEVILS LAKE    CLOUDY    27  24  89 SW8       29.88F WCI  19
FARGO          CLOUDY    25  19  78 S5        29.95F WCI  19
WAHPETON ARPT  NOT AVBL
$$

 ***** WEATHER ACROSS CENTRAL AND WESTERN NORTH DAKOTA  *****

CITY           SKY/WX    TMP DP  RH WIND       PRES   REMARKS
BISMARCK       FAIR      26  22  84 E3        29.91F
MINOT          FAIR      29  25  85 S10       29.80F WCI  20
JAMESTOWN      FAIR      25  22  88 SW6       29.91F WCI  18
MINOT AFB      FAIR      21  19  91 CALM      29.80F
GARRISON         N/A     27  26  96 SE6       29.85F WCI  20
WILLISTON      FAIR      25  23  92 S3        29.81F
DICKINSON      FAIR      42  38  85 W15       29.85F
HETTINGER      FAIR      34  31  88 W5        29.93F
$$

 *****  OTHER AIRPORT OBSERVATIONS IN OUR AREA  *****

CITY           SKY/WX    TMP DP  RH WIND       PRES   REMARKS
WALHALLA       FAIR      23  25 100 W5        29.88F WCI  17
GRAFTON AIRPOR CLOUDY    18  18 100 S5        29.92F WCI  11
VALLEY CITY AR CLOUDY    27  27 100 W3G12     29.94F
CANDO          PTSUNNY   23  23 100 SW8       29.88F WCI  14
CAVALIER APRT  FAIR      12  12 100 S3        29.89F
GWINNER          N/A     25  21  86 SW7       29.95F WCI  17
SHEYENNE NWR     N/A     27  24  89 NW2       29.95S
ROLLA          PTSUNNY   21  21 100 S3        29.84F
 ***** THE ABOVE OBSERVATIONS ARE NON NWS ARE NOT QUALITY
       CONTROLLED AND MAY MIS-REPORT RAIN FOR SNOW...
$$

  *****  WEATHER ACROSS NORTHERN MINNESOTA  *****

CITY           SKY/WX    TMP DP  RH WIND       PRES   REMARKS
FLAG ISLAND    CLOUDY    18  16  93 SW5       29.87S WCI  11
WARROAD        MOCLDY    16  12  86 CALM      29.89S
ROSEAU         FAIR      16  12  86 SW5       29.89F WCI   9
HALLOCK        FAIR      12  10  92 S6        29.90F WCI   3
THF RVR FALLS  FAIR      15  13  91 SW5       29.91F WCI   8
BAUDETTE       FAIR      16  14  92 SW6       29.88S WCI   7
WASKISH        MOCLDY    16  12  86 CALM      29.89F
CROOKSTON      CLOUDY    23  21  93 SW3       29.94F
STEPHEN NDAWN    N/A     12  10  92 S2          N/A
GREENBUSH NDAW   N/A     12  10  92 S3          N/A
$$
  *****  WEATHER ACROSS CENTRAL AND WEST MINNESOTA  *****

CITY           SKY/WX    TMP DP  RH WIND       PRES   REMARKS
FOSSTON        FAIR      10   9  92 SW5       29.93S WCI   2
BEMIDJI        FAIR      14  12  92 SW3       29.90S
PARK RAPIDS    FAIR      10   6  84 W3        29.91R
ELBOW LAKE     FAIR      19  16  90 W6        29.95S FOG     WCI  10
WADENA         FAIR      16  12  86 CALM      29.93R
DETROIT LAKES  FAIR      23  19  86 CALM      29.93F
MOORHEAD       CLOUDY    21  18  86 CALM      29.96F
FERGUS FALLS   FAIR      16  12  86 NW3       29.98S
MORRIS MN      FAIR      21  18  86 NW7       29.94S WCI  13
STAPLES        FAIR      16  12  86 CALM      29.92S
$$
  *****  WEATHER ELSEWHERE ACROSS MINNESOTA  *****

CITY           SKY/WX    TMP DP  RH WIND       PRES   REMARKS
DULUTH         FAIR      20  18  92 W3        29.87F
INTRNTL FALLS  FAIR      16  14  92 S3        29.88F
ELY            CLOUDY    19  16  86 W5        29.86F WCI  13
CLOQUET        FAIR      19  18  93 CALM      29.89F
WHEATON        FAIR      23  18  80 W5        29.98S WCI  17
BRAINERD       FAIR      12   9  87 CALM      29.92R
HIBBING        CLOUDY    20  18  92 CALM      29.88F
ALEXANDRIA     FAIR      20  17  88 SW5       29.93R WCI  13
SAINT CLOUD    FAIR      20  17  88 W5        29.92S WCI  13
MINNEAPOLIS    MOCLDY    26  19  74 CALM      29.93F
$$

  *****  WEATHER ACROSS SOUTH DAKOTA  *****

CITY           SKY/WX    TMP DP  RH WIND       PRES   REMARKS
SIOUX FALLS    FAIR      34  27  75 NW10      29.97R
BROOKINGS      FAIR      27  23  85 NW3       29.96S
WATERTOWN      FAIR      24  21  88 W5        29.95S WCI  18
HURON          FAIR      22  21  96 NW7       29.99F WCI  13
SISSETON         N/A     24  19  81 NW7       29.95S WCI  16
ABERDEEN       FAIR      18  17  96 SW3       30.00S
MITCHELL       FAIR      31  27  85 NW3       30.01S
PIERRE         FAIR      33  33 100 CALM      29.97F
MOBRIDGE       FAIR      30  27  88 E8        29.91F WCI  22
RAPID CITY     FAIR      45  36  70 W5        30.02F
$$

  *****  SOME WEATHER IN NEARBY STATES *****

CITY           SKY/WX    TMP DP  RH WIND       PRES   REMARKS
GLASGOW MT     FAIR      41  37  86 CALM      29.80F
GREAT FALLS MT FAIR      57  37  47 SW26G35   29.90F
CHEYENNE WY    FAIR      49  37  63 W16       30.25F
SCOTTSBLUFF NE FAIR      37  34  89 NW8       30.15F
OMAHA NE       FAIR      30  21  69 SE5       30.00S
DES MOINES IA  FAIR      32  20  61 SW8       29.97F WCI  25
DAVENPORT IA   FAIR      32  19  58 S14       30.03F WCI  22
CHICAGO IL     CLOUDY    33  19  56 S13       30.06F WCI  24
EAU CLAIRE WI  FAIR      19  14  81 NE3       29.92F
LA CROSSE WI   FAIR      30  19  63 S6        29.96F WCI  24
$$

  *****  SOME NATIONAL WEATHER *****

CITY           SKY/WX    TMP DP  RH WIND       PRES   REMARKS
LA GUARDIA NY  FAIR      34  22  61 NW14      30.08S WCI  25
RALEIGH NC     MOCLDY    33  27  78 CALM      30.15S
ATLANTA GA     FAIR      43  35  73 E8        30.05F
NEW ORLEANS LA FAIR      48  36  63 N9        30.11S
OKLAHOMA CITY  FAIR      32  22  66 S8        30.15F WCI  25
ALBUQUERQUE NM FAIR      44  28  53 CALM      30.33R
SALT LAKE CITY MOCLDY    50  41  71 SE12      30.30F
LOS ANGELES CA FAIR      73  40  30 N3        30.01S
BOISE ID       FAIR      47  46  97 NW5       30.12F
SEATTLE WA     CLOUDY    57  55  93 SW15G23   29.88R
$$

*** WEATHER ACROSS MANITOBA...SASKATCHEWAN AND ONTARIO ***
                ***ONTARIO***

CITY           SKY/WX    TMP DP  RH WIND       PRES   REMARKS
GERALDTON      FLURRIES  19  16  86 SW7       29.73F WCI  10
THUNDER BAY    CLOUDY    25  19  80 W9        29.84F WCI  15
SIOUX LOOKOUT  FLURRIES  19  16  86 W8        29.79S WCI   9
TORONTO        MOCLDY    30  19  64 SW12      30.11F WCI  21
BIG TROUT LK   LGT SNOW   9   5  85 NW14G22   29.68R WCI  -8
PICKLE LAKE    NOT AVBL
DRYDEN         CLOUDY    19  18  93 W9        29.80S WCI   9
KENORA         CLOUDY    18  16  93 W3        29.83F
$$
                *** MANITOBA***

CITY           SKY/WX    TMP DP  RH WIND       PRES   REMARKS
BRANDON        CLOUDY    19  14  79 CALM      29.84F
DAUPHIN        CLOUDY    23  19  86 NW6       29.85S WCI  16
ISLAND LAKE    NOT AVBL
PILOT MOUND      N/A     23  19  86 W2          N/A
THE PAS        CLOUDY     7   1  78 CALM      29.88F
THOMPSON       CLEAR     -4  -9  77 NW3       29.85S
WINNIPEG       CLOUDY    19  16  86 W3        29.88S
LYNN LAKE      CLEAR     -9 -13  84 W6        29.82F WCI -23
CHURCHILL      CRYSTALS  -6 -11  77 W21G26    29.70F WCI -30
GILLAM         FLURRIES   1  -4  78 W14       29.80R WCI -17
$$
                ***SASKATCHEWAN***

CITY           SKY/WX    TMP DP  RH WIND       PRES   REMARKS
ESTEVAN        PTCLDY    19  18  93 S6        29.76F WCI  11
KINDERSLEY     CLEAR     25  23  93 S6        29.54F WCI  18
LLOYDMINSTER   MOCLDY    14  12  92 SE8       29.49F WCI   3
PRINCE ALBERT  NOT AVBL
REGINA         CLEAR     18  16  93 SE12      29.69F WCI   5
YORKTON        CLOUDY    19  18  93 SE7       29.76F WCI  10
N. BATTLEFORD  CLEAR     14  10  85 SE17G23   29.60F WCI  -3
LA RONGE       FLURRIES   9   5  85 E8        29.79F WCI  -4
SASKATOON      CLEAR     18  16  93 E12       29.65F WCI   5
SWIFT CURRENT  CLEAR     41  36  81 SW18      29.62F
$$
NOTE: THESE ARE AUTOMATED STATIONS WITH LIMITED QUALITY CONTROL
      "FAIR" INDICATES FEW OR NO CLOUDS BELOW 12,000 FEET WITH NO
      SIGNIFICANT WEATHER AND/OR OBSTRUCTIONS TO VISIBILITY.
      SKY/WX - SKY CONDITION AND SIGNIFICANT WEATHER.
      TMP - AIR TEMPERATURE.    DP   - DEWPOINT TEMPERATURE.
      RH  - RELATIVE HUMIDITY.  PRES - PRESSURE.
      HX  - HEAT INDEX.         WCI  - WIND CHILL INDEX.
$



USA.gov is the U.S. government's official web portal to all federal, state and local government web resources and services.